Hourly Data Report for May 13, 2021

WINNIPEG THE FORKS
MANITOBA
Current Station Operator: ECCC - MSC

49°53'18.008" N
97°07'46.007" W
230.00 m
5023262
71579
XWN

Download Data

Hourly Data (May 2021)
Hourly Data Report for May 13, 2021
TIME
LST
Temp Definition
°C
Dew Point Definition
°C
Rel Hum Definition
%
Precip. Amount Definition
mm

Wind Dir Definition
10's deg

Wind Spd Definition
km/h
Visibility Definition
km
Stn Press Definition
kPa
Hmdx Definition


Wind Chill Definition


Weather Definition


00:00 15.3 -6.2 22 0.0 21 9   99.33     LegendNANA
01:00 14.4 -6.2 23 0.0 20 9   99.31     LegendNANA
02:00 12.4 -6.3 27 0.0 22 6   99.31     LegendNANA
03:00 11.0 -5.9 30 0.0   0   99.27     LegendNANA
04:00 9.5 -4.9 36 0.0   0   99.25     LegendNANA
05:00 9.0 -4.0 40 0.0   0   99.22     LegendNANA
06:00 10.2 -3.3 38 0.0 19 1   99.23     LegendNANA
07:00 12.7 -1.5 37 0.0 19 5   99.23     LegendNANA
08:00 14.1 -0.9 35 0.0 20 9   99.21     LegendNANA
09:00 16.7 -1.2 30 0.0 22 9   99.22     LegendNANA
10:00 19.4 -0.9 25 0.0 23 10   99.18     LegendNANA
11:00 21.7 -0.7 22 0.0 25 5   99.14     LegendNANA
12:00 22.4 -1.5 20 0.0 21 10   99.08     LegendNANA
13:00 20.5 0.9 27 0.0 20 8   99.12     LegendNANA
14:00 21.9 -0.7 22 0.0 20 8   99.05     LegendNANA
15:00 22.5 -1.8 20 0.0 23 5   98.96     LegendNANA
16:00 22.9 -5.1 15 0.0 21 6   98.88     LegendNANA
17:00 22.7 -1.2 20 0.0 4 5   98.87     LegendNANA
18:00 22.1 -1.2 21 0.0 20 9   98.87     LegendNANA
19:00 19.4 1.3 30 0.0 23 12   98.95     LegendNANA
20:00 19.0 1.1 30 0.0 23 3   98.95     LegendNANA
21:00 18.9 0.9 30 0.0 21 8   99.00     LegendNANA
22:00 17.4 1.8 35 0.0 22 9   99.04     LegendNANA
23:00 15.8 2.5 41 0.0 22 7   99.05     LegendNANA

Notes on Data Quality.

Legend

  • E = Estimated
  • M = Missing
  • NA = Not Available*
  • [empty] = Indicates an unobserved value
Date modified: